FW1042 Weather Reports


Display with metric or nautical units.
time (UTC)temp
F
wind
direction
speed
MPH
gust
MPH
rain 1hr
in
rain 24hr
in
rain mn
in
humidity
%
barometer
mb
20260902073651 84 221 2.0 6.0 0.00 0.00 0.00 65 1015.2
20260902073447 85 178 2.0 7.0 0.00 0.00 0.00 65 1015.2
20260902072651 85 151 3.0 11.0 0.00 0.00 0.00 64 1015.2
20260902072151 85 221 3.0 11.0 0.00 0.00 0.00 65 1015.4
20260902071649 85 175 3.0 7.0 0.00 0.00 0.00 65 1015.4
20260902071151 85 170 2.0 7.0 0.00 0.00 0.00 65 1015.4
20260902070647 85 135 3.0 7.0 0.00 0.00 0.00 65 1015.4
20260902070145 85 170 3.0 6.0 0.00 0.00 0.00 64 1015.5
20260902065645 85 136 3.0 8.0 0.00 0.00 0.00 64 1015.3
20260902065145 85 138 3.0 8.0 0.00 0.00 0.00 64 1015.4
20260902064647 85 205 2.0 8.0 0.00 0.00 0.00 64 1015.3
20260902064145 86 234 3.0 8.0 0.00 0.00 0.00 63 1015.3
20260902063645 86 150 3.0 8.0 0.00 0.00 0.00 63 1015.1
20260902063146 86 167 4.0 9.0 0.00 0.00 0.00 63 1015.1
20260902062645 86 193 5.0 9.0 0.00 0.00 0.00 62 1014.9
20260902062443 86 82 4.0 10.0 0.00 0.00 0.00 62 1014.9
20260902061645 86 150 3.0 10.0 0.00 0.00 0.00 62 1014.9
20260902061145 87 145 4.0 8.0 0.00 0.00 0.00 62 1015.0
20260902060643 87 174 4.0 9.0 0.00 0.00 0.00 62 1014.8
20260902060143 87 169 4.0 11.0 0.00 0.00 0.00 62 1014.9
20260902055643 87 148 4.0 11.0 0.00 0.00 0.00 62 1014.8
20260902055143 87 162 4.0 9.0 0.00 0.00 0.00 62 1014.8
20260902054643 87 169 4.0 9.0 0.00 0.00 0.00 62 1014.9
20260902054142 87 167 3.0 8.0 0.00 0.00 0.00 61 1014.7
20260902053640 87 198 3.0 8.0 0.00 0.00 0.00 61 1014.9
20260902053141 88 159 3.0 8.0 0.00 0.00 0.00 60 1014.7
20260902052940 88 148 3.0 8.0 0.00 0.00 0.00 60 1014.8
20260902052142 88 210 4.0 9.0 0.00 0.00 0.00 59 1014.7
20260902051641 88 184 4.0 9.0 0.00 0.00 0.00 58 1014.8
20260902051141 89 156 4.0 9.0 0.00 0.00 0.00 58 1014.7
20260902050641 89 136 4.0 8.0 0.00 0.00 0.00 57 1014.8
20260902050141 89 204 5.0 11.0 0.00 0.00 0.00 56 1014.8
20260902045640 89 177 5.0 11.0 0.00 0.00 0.00 55 1014.8
20260902045140 90 115 5.0 12.0 0.00 0.00 0.00 55 1014.8
20260902044640 90 186 4.0 12.0 0.00 0.00 0.00 54 1014.8
20260902044138 90 177 3.0 7.0 0.00 0.00 0.00 54 1014.7
20260902043637 90 157 2.0 7.0 0.00 0.00 0.00 54 1014.7
20260902043137 90 170 2.0 7.0 0.00 0.00 0.00 54 1014.6
20260902042634 90 113 1.0 7.0 0.00 0.00 0.00 54 1014.6
20260902042135 90 93 0.0 2.0 0.00 0.00 0.00 54 1014.5
20260902041632 90 103 0.0 1.0 0.00 0.00 0.00 53 1014.5
20260902041130 90 125 0.0 2.0 0.00 0.00 0.00 53 1014.4
20260902040632 91 107 0.0 2.0 0.00 0.00 0.00 52 1014.3
20260902040411 91 112 1.0 2.0 0.00 0.00 0.00 52 1014.4
20260902035920 91 126 1.0 3.0 0.00 0.00 0.00 52 1014.5
20260902035522 91 153 1.0 4.0 0.00 0.00 0.00 52 1014.5
20260902034624 91 183 1.0 4.0 0.00 0.00 0.00 51 1014.4
20260902034124 91 113 2.0 6.0 0.00 0.00 0.00 51 1014.4
20260902033624 91 177 2.0 6.0 0.00 0.00 0.00 51 1014.5
20260902033124 91 161 1.0 6.0 0.00 0.00 0.00 51 1014.4
20260902032627 91 119 1.0 6.0 0.00 0.00 0.00 51 1014.4
20260902032124 91 161 1.0 6.0 0.00 0.00 0.00 50 1014.4
20260902031624 92 133 1.0 6.0 0.00 0.00 0.00 50 1014.3
20260902031124 92 196 2.0 6.0 0.00 0.00 0.00 50 1014.2
20260902030625 92 171 2.0 6.0 0.00 0.00 0.00 50 1014.2
20260902030124 92 184 2.0 6.0 0.00 0.00 0.00 50 1014.1
20260902025625 92 136 2.0 7.0 0.00 0.00 0.00 49 1014.0
20260902025125 92 147 1.0 7.0 0.00 0.00 0.00 49 1014.0
20260902024720 92 136 1.0 5.0 0.00 0.00 0.00 49 1013.8
20260902024658 92 163 1.0 7.0 0.00 0.00 0.00 49 1013.9
20260902023622 92 128 1.0 6.0 0.00 0.00 0.00 49 1013.8
20260902023123 92 133 1.0 6.0 0.00 0.00 0.00 49 1013.8
20260902022912 92 200 1.0 5.0 0.00 0.00 0.00 49 1013.6
20260902022122 92 22 0.0 4.0 0.00 0.00 0.00 49 1013.6
20260902021625 92 111 0.0 2.0 0.00 0.00 0.00 48 1013.5
20260902021122 92 111 0.0 2.0 0.00 0.00 0.00 48 1013.4
20260902020620 92 159 1.0 2.0 0.00 0.00 0.00 47 1013.4
20260902020114 92 151 1.0 2.0 0.00 0.00 0.00 47 1013.3
20260902015614 93 172 1.0 2.0 0.00 0.00 0.00 47 1013.2
20260902015112 93 110 1.0 3.0 0.00 0.00 0.00 47 1013.1
20260902014612 93 108 1.0 3.0 0.00 0.00 0.00 47 1013.1
20260902014111 93 137 1.0 3.0 0.00 0.00 0.00 46 1013.0
20260902013615 93 114 1.0 3.0 0.00 0.00 0.00 46 1013.0
20260902013110 93 149 1.0 4.0 0.00 0.00 0.00 46 1013.0
20260902012608 93 121 1.0 4.0 0.00 0.00 0.00 46 1013.0
20260902012108 94 116 1.0 3.0 0.00 0.00 0.00 46 1012.9
20260902011602 94 88 2.0 5.0 0.00 0.00 0.00 45 1012.9
20260902011103 94 142 1.0 5.0 0.00 0.00 0.00 45 1012.9
20260902010602 94 160 1.0 6.0 0.00 0.00 0.00 45 1012.9
20260902005602 94 159 2.0 6.0 0.00 0.00 0.00 45 1012.8
20260902005103 95 133 1.0 6.0 0.00 0.00 0.00 44 1012.7
20260902004602 95 94 1.0 6.0 0.00 0.00 0.00 44 1012.8
20260902004103 95 107 2.0 6.0 0.00 0.00 0.00 44 1012.7
20260902003600 95 96 2.0 7.0 0.00 0.00 0.00 44 1012.8
20260902003101 96 161 2.0 7.0 0.00 0.00 0.00 43 1013.0
20260902002600 96 165 2.0 7.0 0.00 0.00 0.00 43 1012.9
20260902002102 96 147 2.0 7.0 0.00 0.00 0.00 42 1012.9
20260902001600 97 306 2.0 7.0 0.00 0.00 0.00 42 1012.9
20260902001101 97 61 2.0 7.0 0.00 0.00 0.00 41 1012.9
20260902000557 98 313 2.0 7.0 0.00 0.00 0.00 41 1013.1
20260902000059 98 198 2.0 7.0 0.00 0.00 0.00 40 1013.0
20260901235556 98 196 2.0 7.0 0.00 0.00 0.00 40 1013.0
20260901235058 98 333 2.0 7.0 0.00 0.00 0.00 40 1013.0
20260901234600 98 57 2.0 8.0 0.00 0.00 0.00 40 1013.1
20260901234056 99 180 2.0 8.0 0.00 0.00 0.00 40 1013.1
20260901233557 100 168 2.0 6.0 0.00 0.00 0.00 38 1013.1
20260901233055 100 130 2.0 7.0 0.00 0.00 0.00 38 1013.1
20260901232556 100 17 2.0 7.0 0.00 0.00 0.00 38 1013.2
20260901232055 101 172 2.0 8.0 0.00 0.00 0.00 38 1013.3
20260901231849 101 171 2.0 8.0 0.00 0.00 0.00 38 1013.2
20260901231352 101 217 2.0 6.0 0.00 0.00 0.00 39 1013.1
20260901230557 101 11 2.0 6.0 0.00 0.00 0.00 38 1013.1
20260901230056 101 279 2.0 4.0 0.00 0.00 0.00 38 1013.1
20260901225858 101 202 2.0 9.0 0.00 0.00 0.00 39 1013.1
20260901225055 101 156 2.0 9.0 0.00 0.00 0.00 38 1013.3
20260901224845 102 11 2.0 7.0 0.00 0.00 0.00 37 1013.2
20260901224055 102 177 2.0 6.0 0.00 0.00 0.00 37 1013.0
20260901223554 101 87 2.0 8.0 0.00 0.00 0.00 37 1013.0
20260901223058 101 162 3.0 8.0 0.00 0.00 0.00 38 1013.1
20260901222553 101 134 3.0 7.0 0.00 0.00 0.00 37 1013.1
20260901222053 102 146 3.0 7.0 0.00 0.00 0.00 37 1013.1
20260901221553 102 53 2.0 7.0 0.00 0.00 0.00 37 1013.2
20260901221052 101 186 2.0 8.0 0.00 0.00 0.00 37 1013.2
20260901220551 101 175 2.0 8.0 0.00 0.00 0.00 38 1013.4
20260901220350 100 198 2.0 9.0 0.00 0.00 0.00 38 1013.5
20260901215552 100 116 2.0 9.0 0.00 0.00 0.00 37 1013.5
20260901215122 101 162 2.0 7.0 0.00 0.00 0.00 37 1013.6
20260901214050 101 144 2.0 9.0 0.00 0.00 0.00 39 1013.6
20260901213550 101 140 2.0 6.0 0.00 0.00 0.00 38 1013.6
20260901213049 102 112 2.0 6.0 0.00 0.00 0.00 38 1013.6
20260901212547 101 343 2.0 7.0 0.00 0.00 0.00 39 1013.6
20260901212040 102 185 2.0 7.0 0.00 0.00 0.00 38 1013.8
20260901211543 102 126 2.0 9.0 0.00 0.00 0.00 38 1013.8
20260901211038 102 331 3.0 9.0 0.00 0.00 0.00 38 1013.9
20260901210539 102 72 2.0 6.0 0.00 0.00 0.00 37 1013.9
20260901210038 102 177 2.0 9.0 0.00 0.00 0.00 38 1014.0
20260901205537 102 131 2.0 9.0 0.00 0.00 0.00 37 1013.9
20260901205038 101 355 2.0 7.0 0.00 0.00 0.00 38 1014.1
20260901204536 101 143 2.0 5.0 0.00 0.00 0.00 39 1014.0
20260901204040 101 9 2.0 9.0 0.00 0.00 0.00 39 1014.1
20260901203826 101 205 3.0 9.0 0.00 0.00 0.00 38 1014.2
20260901203036 101 163 3.0 8.0 0.00 0.00 0.00 40 1014.2
20260901202833 101 134 3.0 8.0 0.00 0.00 0.00 39 1014.3
20260901202153 100 94 2.0 5.0 0.00 0.00 0.00 39 1014.4
20260901201919 100 204 2.0 6.0 0.00 0.00 0.00 39 1014.4
20260901200827 100 32 2.0 8.0 0.00 0.00 0.00 40 1014.5
20260901200036 100 192 2.0 8.0 0.00 0.00 0.00 41 1014.5
20260901195536 100 204 2.0 4.0 0.00 0.00 0.00 39 1014.6
20260901195036 99 53 2.0 6.0 0.00 0.00 0.00 40 1014.6
20260901194830 100 342 2.0 7.0 0.00 0.00 0.00 39 1014.7
20260901194036 100 70 3.0 10.0 0.00 0.00 0.00 41 1014.8
20260901193536 100 119 2.0 10.0 0.00 0.00 0.00 41 1014.8
20260901193039 98 23 2.0 7.0 0.00 0.00 0.00 40 1014.8
20260901192534 99 68 2.0 7.0 0.00 0.00 0.00 42 1014.9
20260901192034 99 73 2.0 7.0 0.00 0.00 0.00 41 1015.0
20260901191533 100 183 2.0 7.0 0.00 0.00 0.00 42 1015.0
20260901191034 99 184 2.0 7.0 0.00 0.00 0.00 43 1015.1
20260901190535 99 69 2.0 7.0 0.00 0.00 0.00 43 1015.1
20260901190034 100 151 2.0 7.0 0.00 0.00 0.00 44 1015.2
20260901185535 99 177 1.0 4.0 0.00 0.00 0.00 44 1015.3
20260901185324 98 119 2.0 7.0 0.00 0.00 0.00 45 1015.4
20260901184533 98 317 2.0 7.0 0.00 0.00 0.00 45 1015.5
20260901184034 98 181 2.0 8.0 0.00 0.00 0.00 45 1015.6
20260901183532 99 141 3.0 9.0 0.00 0.00 0.00 42 1015.8
20260901183031 99 164 3.0 9.0 0.00 0.00 0.00 45 1015.8
20260901182531 99 158 3.0 8.0 0.00 0.00 0.00 46 1015.8
20260901182036 98 199 2.0 6.0 0.00 0.00 0.00 45 1016.0
20260901181532 97 252 2.0 7.0 0.00 0.00 0.00 46 1016.2
20260901181032 96 194 2.0 7.0 0.00 0.00 0.00 47 1016.2
20260901180530 95 184 2.0 7.0 0.00 0.00 0.00 48 1016.3
20260901180031 96 202 2.0 7.0 0.00 0.00 0.00 46 1016.4
20260901175529 96 190 2.0 7.0 0.00 0.00 0.00 46 1016.5
20260901175325 96 243 2.0 7.0 0.00 0.00 0.00 47 1016.6
20260901174527 95 317 1.0 5.0 0.00 0.00 0.00 49 1016.7
20260901174028 96 0 1.0 2.0 0.00 0.00 0.00 47 1016.8
20260901173526 96 96 1.0 7.0 0.00 0.00 0.00 47 1016.8
20260901173319 97 146 2.0 7.0 0.00 0.00 0.00 48 1016.9
20260901172523 97 31 2.0 8.0 0.00 0.00 0.00 46 1017.0
20260901172318 97 165 2.0 8.0 0.00 0.00 0.00 49 1017.1
20260901171524 95 186 1.0 6.0 0.00 0.00 0.00 52 1017.1
20260901171025 94 92 1.0 5.0 0.00 0.00 0.00 50 1017.2
20260901170525 95 250 1.0 5.0 0.00 0.00 0.00 48 1017.2
20260901170023 95 165 2.0 8.0 0.00 0.00 0.00 49 1017.3
20260901165521 95 196 2.0 8.0 0.00 0.00 0.00 49 1017.4
20260901165021 95 51 2.0 5.0 0.00 0.00 0.00 50 1017.4
20260901164522 96 174 2.0 7.0 0.00 0.00 0.00 48 1017.5
20260901164019 96 170 2.0 7.0 0.00 0.00 0.00 49 1017.5
20260901163812 96 186 2.0 7.0 0.00 0.00 0.00 50 1017.5
20260901163018 96 153 2.0 7.0 0.00 0.00 0.00 49 1017.5
20260901162517 96 304 2.0 6.0 0.00 0.00 0.00 49 1017.4
20260901162018 96 245 2.0 5.0 0.00 0.00 0.00 50 1017.5
20260901161517 95 171 2.0 5.0 0.00 0.00 0.00 50 1017.3
20260901161018 95 198 2.0 5.0 0.00 0.00 0.00 51 1017.4
20260901160517 95 219 2.0 5.0 0.00 0.00 0.00 52 1017.5
20260901160012 94 271 1.0 7.0 0.00 0.00 0.00 52 1017.5
20260901155506 94 205 2.0 7.0 0.00 0.00 0.00 52 1017.5
20260901155006 94 281 2.0 6.0 0.00 0.00 0.00 52 1017.6
20260901154756 94 241 1.0 5.0 0.00 0.00 0.00 52 1017.5
20260901154148 93 115 2.0 5.0 0.00 0.00 0.00 54 1017.4
20260901154143 93 204 2.0 5.0 0.00 0.00 0.00 54 1017.3
20260901154120 93 140 1.0 5.0 0.00 0.00 0.00 54 1017.4
20260901152507 93 96 2.0 6.0 0.00 0.00 0.00 53 1017.2
20260901152004 93 178 2.0 6.0 0.00 0.00 0.00 55 1017.3
20260901151504 92 154 1.0 5.0 0.00 0.00 0.00 55 1017.3
20260901151004 92 194 1.0 5.0 0.00 0.00 0.00 56 1017.5
20260901150504 92 302 1.0 4.0 0.00 0.00 0.00 57 1017.4
20260901150015 91 136 1.0 5.0 0.00 0.00 0.00 57 1017.4
20260901145804 90 155 1.0 6.0 0.00 0.00 0.00 60 1017.5
20260901145759 91 164 2.0 6.0 0.00 0.00 0.00 59 1017.5
20260901144505 90 159 2.0 6.0 0.00 0.00 0.00 60 1017.6
20260901144004 89 107 2.0 6.0 0.00 0.00 0.00 60 1017.6
20260901143505 89 177 1.0 5.0 0.00 0.00 0.00 61 1017.5
20260901143005 89 244 2.0 5.0 0.00 0.00 0.00 61 1017.4
20260901142504 88 164 2.0 5.0 0.00 0.00 0.00 62 1017.5
20260901142004 88 135 3.0 6.0 0.00 0.00 0.00 62 1017.5
20260901141504 87 158 2.0 6.0 0.00 0.00 0.00 63 1017.5
20260901141004 87 148 2.0 6.0 0.00 0.00 0.00 64 1017.6
20260901140759 87 199 1.0 4.0 0.00 0.00 0.00 65 1017.6
20260901140313 86 166 1.0 6.0 0.00 0.00 0.00 66 1017.6
20260901135502 85 292 2.0 6.0 0.00 0.00 0.00 66 1017.5
20260901135000 85 170 2.0 6.0 0.00 0.00 0.00 67 1017.6
20260901134755 84 112 3.0 7.0 0.00 0.00 0.00 68 1017.4
20260901134000 84 105 2.0 7.0 0.00 0.00 0.00 69 1017.5
20260901133501 83 117 2.0 6.0 0.00 0.00 0.00 70 1017.4
20260901133252 83 114 2.0 7.0 0.00 0.00 0.00 70 1017.3
20260901132500 82 166 1.0 7.0 0.00 0.00 0.00 71 1017.4
20260901131959 82 182 1.0 4.0 0.00 0.00 0.00 72 1017.2
20260901131501 81 165 1.0 4.0 0.00 0.00 0.00 72 1017.2
20260901131001 81 174 1.0 2.0 0.00 0.00 0.00 73 1017.2
20260901130501 81 159 0.0 2.0 0.00 0.00 0.00 73 1017.1
20260901125959 80 157 0.0 2.0 0.00 0.00 0.00 74 1017.1
20260901125459 80 145 0.0 1.0 0.00 0.00 0.00 74 1017.1
20260901125000 80 144 0.0 1.0 0.00 0.00 0.00 73 1017.0
20260901124502 80 146 0.0 0.0 0.00 0.00 0.00 73 1016.9
20260901124249 80 146 0.0 1.0 0.00 0.00 0.00 73 1016.8
20260901123457 80 146 0.0 2.0 0.00 0.00 0.00 73 1016.7
20260901122959 80 146 0.0 2.0 0.00 0.00 0.00 73 1016.7
20260901122457 80 148 0.0 1.0 0.00 0.00 0.00 73 1016.7
20260901121957 80 148 0.0 2.0 0.00 0.00 0.00 73 1016.7
20260901121455 80 148 0.0 2.0 0.00 0.00 0.00 73 1016.7
20260901120955 80 157 0.0 2.0 0.00 0.00 0.00 73 1016.6
20260901120455 80 155 0.0 2.0 0.00 0.00 0.00 73 1016.6
20260901115955 80 155 0.0 2.0 0.00 0.00 0.00 73 1016.6
20260901115454 80 162 0.0 1.0 0.00 0.00 0.00 72 1016.6
20260901114951 80 173 0.0 1.0 0.00 0.00 0.00 72 1016.5
20260901114450 80 173 0.0 1.0 0.00 0.00 0.00 71 1016.5
20260901113947 81 173 0.0 1.0 0.00 0.00 0.00 71 1016.3
20260901113746 81 173 0.0 1.0 0.00 0.00 0.00 71 1016.4
20260901112940 81 173 0.0 2.0 0.00 0.00 0.00 70 1016.4
20260901112437 81 173 0.0 2.0 0.00 0.00 0.00 70 1016.3
20260901111936 81 177 0.0 4.0 0.00 0.00 0.00 70 1016.3
20260901111435 82 173 0.0 4.0 0.00 0.00 0.00 69 1016.0
20260901110936 82 184 0.0 1.0 0.00 0.00 0.00 69 1016.0
20260901110435 82 165 0.0 1.0 0.00 0.00 0.00 68 1016.2
20260901105935 82 165 0.0 1.0 0.00 0.00 0.00 68 1016.0
20260901105436 82 178 0.0 2.0 0.00 0.00 0.00 68 1016.0
20260901104933 82 186 1.0 3.0 0.00 0.00 0.00 68 1016.0
20260901104727 82 156 1.0 3.0 0.00 0.00 0.00 68 1016.0
20260901104028 83 141 1.0 4.0 0.00 0.00 0.00 67 1016.0
20260901104004 83 199 1.0 4.0 0.00 0.00 0.00 67 1016.2
20260901102929 83 142 1.0 4.0 0.00 0.00 0.00 67 1016.0
20260901102428 83 130 2.0 6.0 0.00 0.00 0.00 66 1016.3
20260901101927 83 130 1.0 6.0 0.00 0.00 0.00 66 1016.2
20260901101426 83 150 1.0 2.0 0.00 0.00 0.00 66 1016.2
20260901100925 83 119 1.0 4.0 0.00 0.00 0.00 65 1015.8
20260901100426 83 174 1.0 4.0 0.00 0.00 0.00 65 1015.9
20260901095926 83 165 0.0 2.0 0.00 0.00 0.00 65 1016.0
20260901095719 84 150 1.0 3.0 0.00 0.00 0.00 64 1016.0
20260901094925 84 149 1.0 4.0 0.00 0.00 0.00 64 1016.0
20260901094439 84 198 2.0 6.0 0.00 0.00 0.00 64 1015.9
20260901093925 84 142 2.0 6.0 0.00 0.00 0.00 63 1016.0
20260901093425 84 180 2.0 6.0 0.00 0.00 0.00 63 1016.0
20260901092925 84 170 2.0 6.0 0.00 0.00 0.00 63 1016.0
20260901092517 85 187 2.0 6.0 0.00 0.00 0.00 62 1015.8
20260901092458 84 202 2.0 6.0 0.00 0.00 0.00 62 1015.9
20260901091708 85 186 2.0 6.0 0.00 0.00 0.00 62 1015.9
20260901090921 85 184 2.0 9.0 0.00 0.00 0.00 61 1016.0
20260901090421 85 181 2.0 9.0 0.00 0.00 0.00 61 1016.0
20260901085920 85 196 2.0 6.0 0.00 0.00 0.00 61 1016.0
20260901085711 85 198 2.0 7.0 0.00 0.00 0.00 61 1016.2
20260901085209 85 197 2.0 8.0 0.00 0.00 0.00 61 1015.9
20260901084715 85 176 3.0 8.0 0.00 0.00 0.00 60 1016.0
20260901083919 85 198 2.0 8.0 0.00 0.00 0.00 60 1015.9
20260901083420 85 198 2.0 6.0 0.00 0.00 0.00 60 1015.9
20260901082919 85 177 2.0 6.0 0.00 0.00 0.00 59 1016.0
20260901082417 85 150 2.0 6.0 0.00 0.00 0.00 59 1015.8
20260901082210 85 137 2.0 6.0 0.00 0.00 0.00 59 1015.8
20260901081414 85 151 2.0 6.0 0.00 0.00 0.00 58 1015.7
20260901080915 85 136 2.0 5.0 0.00 0.00 0.00 58 1015.8
20260901080417 85 137 2.0 7.0 0.00 0.00 0.00 58 1015.7
20260901075916 86 215 2.0 7.0 0.00 0.00 0.00 58 1015.7
20260901075415 86 109 2.0 4.0 0.00 0.00 0.00 57 1015.6
20260901074915 86 148 1.0 4.0 0.00 0.00 0.00 57 1015.6
20260901074415 86 193 1.0 6.0 0.00 0.00 0.00 57 1015.7
20260901073916 86 157 2.0 6.0 0.00 0.00 0.00 56 1015.6